TimeCDT,TemperatureF,Dew PointF,Humidity,Sea Level PressureIn,VisibilityMPH,Wind Direction,Wind SpeedMPH,Gust SpeedMPH,PrecipitationIn,Events,Conditions,WindDirDegrees,DateUTC
12:15 AM,49.3,43.7,81,30.07,10.0,South,3.5,-,N/A,,Clear,180,2013-09-15 05:15:00
12:35 AM,50.0,43.7,79,30.07,10.0,South,4.6,-,N/A,,Clear,190,2013-09-15 05:35:00
12:55 AM,51.1,43.3,75,30.07,10.0,South,4.6,-,N/A,,Clear,190,2013-09-15 05:55:00
1:15 AM,51.1,43.2,74,30.07,10.0,South,3.5,-,N/A,,Clear,180,2013-09-15 06:15:00
1:35 AM,51.3,43.7,75,30.06,10.0,South,4.6,-,N/A,,Clear,180,2013-09-15 06:35:00
1:55 AM,50.7,43.9,77,30.06,10.0,South,5.8,-,N/A,,Clear,170,2013-09-15 06:55:00
2:15 AM,52.7,44.1,72,30.05,10.0,South,5.8,-,N/A,,Clear,170,2013-09-15 07:15:00
2:35 AM,50.0,44.6,82,30.06,10.0,South,4.6,-,N/A,,Clear,190,2013-09-15 07:35:00
2:55 AM,51.8,44.8,77,30.06,10.0,South,4.6,-,N/A,,Clear,170,2013-09-15 07:55:00
3:15 AM,52.0,45.0,77,30.06,10.0,South,4.6,-,N/A,,Clear,170,2013-09-15 08:15:00
3:35 AM,52.5,45.7,78,30.06,10.0,Calm,Calm,-,N/A,,Clear,0,2013-09-15 08:35:00
3:55 AM,52.0,46.4,81,30.07,10.0,Calm,Calm,-,N/A,,Clear,0,2013-09-15 08:55:00
4:15 AM,52.0,46.6,82,30.07,10.0,Calm,Calm,-,N/A,,Clear,0,2013-09-15 09:15:00
4:35 AM,52.7,46.4,79,30.07,10.0,SSE,3.5,-,N/A,,Clear,160,2013-09-15 09:35:00
4:55 AM,52.5,46.0,79,30.08,10.0,Calm,Calm,-,N/A,,Clear,0,2013-09-15 09:55:00
5:15 AM,52.2,46.4,81,30.08,10.0,Calm,Calm,-,N/A,,Clear,0,2013-09-15 10:15:00
5:35 AM,49.5,46.8,90,30.08,10.0,Calm,Calm,-,N/A,,Scattered Clouds,0,2013-09-15 10:35:00
5:55 AM,49.1,46.9,92,30.07,10.0,Calm,Calm,-,N/A,,Scattered Clouds,0,2013-09-15 10:55:00
6:15 AM,49.3,46.6,90,30.08,10.0,Calm,Calm,-,N/A,,Clear,0,2013-09-15 11:15:00
6:35 AM,50.4,46.6,87,30.08,10.0,SE,3.5,-,N/A,,Clear,130,2013-09-15 11:35:00
6:55 AM,50.5,46.6,86,30.08,10.0,SE,3.5,-,N/A,,Clear,140,2013-09-15 11:55:00
7:15 AM,51.4,47.3,86,30.09,10.0,SE,4.6,-,N/A,,Clear,130,2013-09-15 12:15:00
7:35 AM,52.2,47.5,84,30.08,10.0,Calm,Calm,-,N/A,,Clear,0,2013-09-15 12:35:00
7:55 AM,53.8,48.4,82,30.07,10.0,SSE,3.5,-,N/A,,Clear,160,2013-09-15 12:55:00
8:15 AM,55.2,48.6,78,30.06,10.0,SE,5.8,-,N/A,,Scattered Clouds,140,2013-09-15 13:15:00
8:35 AM,56.3,49.3,77,30.07,10.0,South,5.8,-,N/A,,Mostly Cloudy,170,2013-09-15 13:35:00
8:55 AM,58.1,49.6,73,30.07,10.0,South,6.9,-,N/A,,Mostly Cloudy,180,2013-09-15 13:55:00
9:15 AM,59.0,50.2,73,30.07,10.0,South,8.1,-,N/A,,Overcast,180,2013-09-15 14:15:00
9:35 AM,59.9,50.5,71,30.07,10.0,South,8.1,-,N/A,,Overcast,180,2013-09-15 14:35:00
9:55 AM,61.7,50.4,66,30.06,10.0,South,8.1,-,N/A,,Overcast,180,2013-09-15 14:55:00
10:15 AM,63.5,51.1,64,30.05,10.0,South,6.9,-,N/A,,Overcast,190,2013-09-15 15:15:00
10:35 AM,65.1,51.4,61,30.05,10.0,South,9.2,-,N/A,,Overcast,190,2013-09-15 15:35:00
10:55 AM,68.0,51.1,55,30.04,10.0,South,12.7,16.1,N/A,,Overcast,190,2013-09-15 15:55:00
11:15 AM,68.5,51.3,54,30.05,10.0,SSW,11.5,17.3,N/A,,Overcast,200,2013-09-15 16:15:00
11:35 AM,69.4,51.1,52,30.05,10.0,SW,11.5,17.3,N/A,,Overcast,220,2013-09-15 16:35:00
11:55 AM,72.0,52.0,49,30.06,10.0,SW,12.7,18.4,N/A,,Overcast,220,2013-09-15 16:55:00
12:15 PM,70.3,50.7,50,30.04,10.0,SSW,10.4,-,N/A,,Overcast,210,2013-09-15 17:15:00
12:35 PM,66.6,52.7,61,30.03,10.0,SW,8.1,-,N/A,Rain,Light Rain,220,2013-09-15 17:35:00
12:55 PM,68.2,54.9,62,30.02,10.0,SSW,3.5,-,N/A,,Light Drizzle,200,2013-09-15 17:55:00
1:15 PM,70.2,53.1,55,30.02,10.0,South,10.4,-,N/A,,Overcast,190,2013-09-15 18:15:00
1:35 PM,69.8,51.6,52,30.00,10.0,South,8.1,-,N/A,,Overcast,190,2013-09-15 18:35:00
1:55 PM,69.6,51.3,52,30.01,10.0,SSW,9.2,-,N/A,,Overcast,210,2013-09-15 18:55:00
2:15 PM,69.4,52.3,54,30.01,10.0,SW,5.8,-,N/A,Rain,Light Rain,220,2013-09-15 19:15:00
2:35 PM,68.2,52.5,57,30.00,10.0,SW,5.8,-,N/A,,Overcast,220,2013-09-15 19:35:00
2:55 PM,68.0,54.0,61,30.00,10.0,SSW,6.9,-,N/A,,Overcast,210,2013-09-15 19:55:00
3:15 PM,69.3,52.3,55,30.00,10.0,SSW,6.9,-,N/A,,Overcast,200,2013-09-15 20:15:00
3:35 PM,69.1,52.2,55,30.01,10.0,SSW,8.1,-,N/A,,Overcast,200,2013-09-15 20:35:00
3:55 PM,68.2,52.3,57,30.02,10.0,WSW,5.8,-,N/A,,Overcast,240,2013-09-15 20:55:00
4:15 PM,67.5,53.4,61,30.02,10.0,West,3.5,-,N/A,,Overcast,270,2013-09-15 21:15:00
4:35 PM,66.6,56.8,71,30.02,10.0,Calm,Calm,-,N/A,,Overcast,0,2013-09-15 21:35:00
4:55 PM,66.7,55.4,67,30.02,10.0,NNW,3.5,-,N/A,,Overcast,330,2013-09-15 21:55:00
5:15 PM,66.0,55.9,70,30.03,10.0,NW,5.8,-,N/A,Rain,Rain,320,2013-09-15 22:15:00
5:35 PM,62.6,57.4,83,30.03,5.0,WNW,4.6,-,0.02,Rain,Heavy Rain,300,2013-09-15 22:35:00
5:55 PM,61.7,58.3,89,30.04,10.0,Calm,Calm,-,0.04,Rain,Light Rain,0,2013-09-15 22:55:00
6:15 PM,61.2,59.0,93,30.05,10.0,Calm,Calm,-,0.01,Rain,Light Rain,0,2013-09-15 23:15:00
6:35 PM,60.8,59.0,94,30.05,10.0,Calm,Calm,-,0.01,Rain,Rain,0,2013-09-15 23:35:00
6:55 PM,60.8,59.2,94,30.06,10.0,Calm,Calm,-,0.01,,Light Drizzle,0,2013-09-15 23:55:00
7:15 PM,60.8,59.0,94,30.07,10.0,NW,3.5,-,N/A,Rain,Rain,320,2013-09-16 00:15:00
7:35 PM,60.3,59.2,96,30.07,4.0,Calm,Calm,-,0.01,,Drizzle,0,2013-09-16 00:35:00
7:55 PM,59.9,58.6,96,30.08,5.0,North,4.6,-,0.01,,Drizzle,360,2013-09-16 00:55:00
8:15 PM,59.7,58.8,97,30.08,5.0,North,3.5,-,N/A,,Light Drizzle,10,2013-09-16 01:15:00
8:35 PM,59.5,58.6,97,30.09,7.0,Calm,Calm,-,0.01,,Overcast,0,2013-09-16 01:35:00
8:55 PM,59.9,59.0,97,30.10,7.0,Calm,Calm,-,0.01,,Overcast,0,2013-09-16 01:55:00
9:15 PM,59.9,58.3,94,30.10,10.0,NNW,3.5,-,N/A,,Overcast,340,2013-09-16 02:15:00
9:35 PM,59.9,58.3,94,30.11,7.0,NNW,3.5,-,N/A,,Overcast,340,2013-09-16 02:35:00
9:55 PM,59.5,58.3,96,30.11,7.0,NNW,4.6,-,N/A,,Overcast,340,2013-09-16 02:55:00
10:15 PM,59.4,57.7,94,30.12,5.0,NNW,6.9,-,N/A,,Overcast,340,2013-09-16 03:15:00
10:35 PM,59.2,57.4,94,30.12,7.0,North,5.8,-,N/A,,Overcast,350,2013-09-16 03:35:00
10:55 PM,59.0,57.2,94,30.13,7.0,North,5.8,-,N/A,,Overcast,350,2013-09-16 03:55:00
11:15 PM,59.0,57.2,94,30.13,5.0,North,4.6,-,N/A,,Overcast,350,2013-09-16 04:15:00
11:35 PM,59.0,57.0,93,30.14,7.0,North,5.8,-,N/A,,Overcast,10,2013-09-16 04:35:00
11:55 PM,58.6,57.2,95,30.14,7.0,North,5.8,-,N/A,,Overcast,10,2013-09-16 04:55:00